sat.trackr.live / text

‹ back to catalog

STARLINK-31645

NORAD 59264 · 2024-050L

PAYLOAD ACTIVE UNKNOWN

§ Identity

Operator
Country
US
Launch date
2024-03-19
Launch site
AFWTR
Launch vehicle
Mass (kg)
RCS (m²)

Purposes: comms

External: N2YO · Heavens-Above · Gunter

§ Orbital elements

Epoch: 2026-05-24T19:48:41.193792Z

Period
94.11 min
Inclination
53.1590°
Eccentricity
0.0001230
Mean motion
15.30198943 rev/d
Perigee alt
474.4 km
Apogee alt
476.1 km
Semi-major
6,853.4 km
B*
2.2517e-4
RAAN
187.4682°
Arg perigee
84.0357°
Mean anomaly
276.0784°
Rev number
12,220

§ Raw data

STARLINK-316451 59264U 24050L   26144.82547678  .00006315  00000+0  22517-3 0  99952 59264  53.1590 187.4682 0001230  84.0357 276.0784 15.30198943122204

JSON: /api/v1/satellites/59264 · /tle

For live sub-satellite position, see the globe view (requires WebGL).

§ Visibility from observer

Set your observer location to see the next 7 days of passes ≥ 10°. The values pass through the URL so the page stays shareable.

No JS? Fill the form by hand. The geolocation button needs JavaScript.